Location: Schommer Observatory
(40.5200°N, 74.4500°W)
Time: 02:06:20
(UTC-04:00)

Tiangong 2 - Pass Details

Date: 26 May 2018
Orbit: 382 x 385 km, 42.8° (Epoch: 23 May)

Event Time Altitude Azimuth Distance (km) Brightness Sun altitude
Rises 21:19:18 0° 270° (W) 2,249 5.8 -10.5°
Reaches altitude 10° 21:21:24 10° 274° (W) 1,397 4.8 -10.8°
Maximum altitude 21:24:30 56° 354° (N) 458 1.7 -11.2°
Drops below altitude 10° 21:27:36 10° 75° (ENE) 1,397 3.6 -11.7°
Enters shadow 21:28:04 - 76° (ENE) 1,586 3.8 -11.7°
